FALCON 9 DEB (55625 NORAD) Tracking and Keplerian Element Data

This shows tracking and keplerian element data for the satellite.

Feedback or suggestion? Click here.




ElementValue
Catalog55625
NameFALCON 9 DEB
Epoch Orbit313
Epoch Day62.84603764
Epoch Year2023
RAAN235.0244
Inclination43.0038
Eccentricity0.0013164
Argument of Perigee76.3579
Mean Anonmoly283.8765
Mean Motion15.99415421
Decay Rate0.00662341
L11 55625U 23020BJ 23062.84603764 .00662341 20177-3 12786-2 0 9999
L22 55625 43.0038 235.0244 0013164 76.3579 283.8765 15.99415421 3132



Live tracking and technical data element details for FALCON 9 DEB (NORAD 55625). FALCON 9 DEB can be tracked NOW for your location showing map with azimuth and elevation plus other details from your city location.







IsCatalogInMostPopularTable: catalog: 55625, numindb: 6
Update: records affected: 1



GetName: 55625 FALCON 9 DEB

Hit Count: updated at: Tue, 28 Mar 2023 01:48:08 GMT